| time (UTC) | temp F | wind direction | speed knots | gust knots | rain 1hr in | rain 24hr in | rain mn in | humidity % | barometer mb |
| 20260906220005 | 81 | 143 | 6.1 | 13.0 | 0.00 | 0.00 | 0.00 | 36 | 1023.0 |
| 20260906214503 | 83 | 185 | 3.5 | 14.8 | 0.00 | 0.00 | 0.00 | 35 | 1023.3 |
| 20260906213004 | 83 | 209 | 7.8 | 14.8 | 0.00 | 0.00 | 0.00 | 35 | 1023.5 |
| 20260906211502 | 83 | 160 | 6.1 | 17.4 | 0.00 | 0.00 | 0.00 | 35 | 1023.7 |
| 20260906210004 | 83 | 132 | 3.5 | 10.4 | 0.00 | 0.00 | 0.00 | 35 | 1023.7 |
| 20260906204507 | 84 | 184 | 6.1 | 14.8 | 0.00 | 0.00 | 0.00 | 33 | 1023.9 |
| 20260906203017 | 83 | 128 | 4.3 | 12.2 | 0.00 | 0.00 | 0.00 | 34 | 1024.0 |
| 20260906201511 | 83 | 147 | 4.3 | 7.8 | 0.00 | 0.00 | 0.00 | 35 | 1024.1 |
| 20260906200007 | 83 | 179 | 4.3 | 13.0 | 0.00 | 0.00 | 0.00 | 32 | 1024.3 |
| 20260906194508 | 83 | 130 | 5.2 | 12.2 | 0.00 | 0.00 | 0.00 | 33 | 1024.4 |
| 20260906193007 | 82 | 153 | 6.1 | 13.9 | 0.00 | 0.00 | 0.00 | 32 | 1024.7 |
| 20260906191505 | 83 | 92 | 1.7 | 14.8 | 0.00 | 0.00 | 0.00 | 33 | 1024.7 |
| 20260906190008 | 83 | 139 | 4.3 | 10.4 | 0.00 | 0.00 | 0.00 | 32 | 1025.0 |
| 20260906184509 | 82 | 203 | 3.5 | 13.9 | 0.00 | 0.00 | 0.00 | 32 | 1025.1 |
| 20260906183011 | 82 | 173 | 5.2 | 13.9 | 0.00 | 0.00 | 0.00 | 35 | 1025.4 |
| 20260906181528 | 81 | 170 | 3.5 | 11.3 | 0.00 | 0.00 | 0.00 | 36 | 1025.8 |
| 20260906180024 | 81 | 169 | 2.6 | 8.7 | 0.00 | 0.00 | 0.00 | 33 | 1026.0 |
| 20260906174513 | 81 | 153 | 3.5 | 8.7 | 0.00 | 0.00 | 0.00 | 36 | 1026.2 |
| 20260906173012 | 80 | 159 | 2.6 | 8.7 | 0.00 | 0.00 | 0.00 | 35 | 1026.3 |
| 20260906171514 | 80 | 201 | 4.3 | 6.1 | 0.00 | 0.00 | 0.00 | 34 | 1026.5 |
| 20260906170007 | 80 | 236 | 1.7 | 6.1 | 0.00 | 0.00 | 0.00 | 36 | 1026.6 |
| 20260906164516 | 79 | 126 | 1.7 | 8.7 | 0.00 | 0.00 | 0.00 | 34 | 1026.7 |
| 20260906163014 | 78 | 74 | 1.7 | 7.0 | 0.00 | 0.00 | 0.00 | 37 | 1026.7 |
| 20260906161534 | 77 | 306 | 0.9 | 5.2 | 0.00 | 0.00 | 0.00 | 39 | 1026.8 |
| 20260906160015 | 75 | 65 | 0.9 | 5.2 | 0.00 | 0.00 | 0.00 | 43 | 1026.8 |
| 20260906154514 | 75 | 107 | 1.7 | 7.0 | 0.00 | 0.00 | 0.00 | 40 | 1026.7 |
| 20260906153018 | 74 | 111 | 0.9 | 4.3 | 0.00 | 0.00 | 0.00 | 42 | 1026.6 |
| 20260906151521 | 73 | 360 | 0.9 | 3.5 | 0.00 | 0.00 | 0.00 | 43 | 1026.5 |
| 20260906150018 | 71 | 32 | 0.9 | 3.5 | 0.00 | 0.00 | 0.00 | 47 | 1026.4 |
| 20260906144522 | 69 | 348 | 0.9 | 2.6 | 0.00 | 0.00 | 0.00 | 49 | 1026.5 |
| 20260906143018 | 66 | 339 | 1.7 | 4.3 | 0.00 | 0.00 | 0.00 | 56 | 1026.3 |
| 20260906141503 | 62 | 69 | 1.7 | 3.5 | 0.00 | 0.00 | 0.00 | 62 | 1026.3 |
| 20260906140005 | 58 | 17 | 0.0 | 3.5 | 0.00 | 0.00 | 0.00 | 68 | 1026.3 |
| 20260906134510 | 56 | 38 | 0.0 | 2.6 | 0.00 | 0.00 | 0.00 | 71 | 1026.1 |
| 20260906133016 | 56 | 22 | 0.0 | 2.6 | 0.00 | 0.00 | 0.00 | 69 | 1025.9 |
| 20260906131523 | 57 | 30 | 0.0 | 1.7 | 0.00 | 0.00 | 0.00 | 66 | 1025.7 |
| 20260906130007 | 58 | 28 | 0.0 | 1.7 | 0.00 | 0.00 | 0.00 | 64 | 1025.8 |
| 20260906124505 | 58 | 360 | 0.9 | 3.5 | 0.00 | 0.00 | 0.00 | 61 | 1025.8 |
| 20260906123019 | 59 | 43 | 0.0 | 2.6 | 0.00 | 0.00 | 0.00 | 61 | 1025.6 |
| 20260906121532 | 59 | 318 | 0.9 | 3.5 | 0.00 | 0.00 | 0.00 | 60 | 1025.6 |
| 20260906120023 | 58 | 318 | 1.7 | 4.3 | 0.00 | 0.00 | 0.00 | 62 | 1025.6 |
| 20260906114507 | 58 | 304 | 0.9 | 4.3 | 0.00 | 0.00 | 0.00 | 63 | 1025.5 |
| 20260906113011 | 57 | 321 | 0.0 | 2.6 | 0.00 | 0.00 | 0.00 | 65 | 1025.5 |
| 20260906111518 | 57 | 352 | 0.9 | 2.6 | 0.00 | 0.00 | 0.00 | 65 | 1025.3 |
| 20260906110023 | 57 | 37 | 0.0 | 0.0 | 0.00 | 0.00 | 0.00 | 64 | 1025.2 |
| 20260906104533 | 58 | 37 | 0.0 | 1.7 | 0.00 | 0.00 | 0.00 | 63 | 1025.2 |
| 20260906103014 | 58 | 21 | 0.0 | 1.7 | 0.00 | 0.00 | 0.00 | 64 | 1025.4 |
| 20260906101514 | 58 | 21 | 0.0 | 1.7 | 0.00 | 0.00 | 0.00 | 64 | 1025.5 |
| 20260906100031 | 58 | 21 | 0.0 | 0.9 | 0.00 | 0.00 | 0.00 | 63 | 1025.6 |
| 20260906094527 | 58 | 21 | 0.0 | 0.9 | 0.00 | 0.00 | 0.00 | 64 | 1025.6 |
| 20260906093029 | 59 | 20 | 0.0 | 2.6 | 0.00 | 0.00 | 0.00 | 64 | 1025.6 |
| 20260906091512 | 59 | 325 | 0.0 | 0.0 | 0.00 | 0.00 | 0.00 | 65 | 1025.4 |
| 20260906090025 | 60 | 325 | 0.0 | 1.7 | 0.00 | 0.00 | 0.00 | 65 | 1025.3 |
| 20260906084528 | 60 | 325 | 0.0 | 0.0 | 0.00 | 0.00 | 0.00 | 68 | 1025.4 |
| 20260906083030 | 61 | 325 | 0.0 | 0.0 | 0.00 | 0.00 | 0.00 | 70 | 1025.7 |
| 20260906081518 | 61 | 325 | 0.0 | 0.0 | 0.00 | 0.00 | 0.00 | 70 | 1025.7 |
| 20260906080019 | 61 | 325 | 0.0 | 1.7 | 0.00 | 0.00 | 0.00 | 69 | 1025.6 |
| 20260906074504 | 60 | 325 | 0.0 | 1.7 | 0.00 | 0.00 | 0.00 | 69 | 1025.7 |
| 20260906073006 | 60 | 55 | 0.0 | 1.7 | 0.00 | 0.00 | 0.00 | 72 | 1025.9 |
| 20260906071517 | 61 | 55 | 0.0 | 0.0 | 0.00 | 0.00 | 0.00 | 72 | 1026.0 |
| 20260906070013 | 61 | 55 | 0.0 | 0.0 | 0.00 | 0.00 | 0.00 | 71 | 1025.8 |
| 20260906064505 | 62 | 55 | 0.0 | 1.7 | 0.00 | 0.00 | 0.00 | 71 | 1026.1 |
| 20260906063004 | 62 | 43 | 0.0 | 1.7 | 0.00 | 0.00 | 0.00 | 72 | 1026.0 |
| 20260906061508 | 62 | 332 | 0.0 | 1.7 | 0.00 | 0.00 | 0.00 | 72 | 1025.8 |
| 20260906060020 | 62 | 360 | 0.0 | 3.5 | 0.00 | 0.00 | 0.00 | 72 | 1025.7 |
| 20260906054516 | 62 | 292 | 1.7 | 3.5 | 0.00 | 0.00 | 0.00 | 73 | 1025.8 |
| 20260906053004 | 63 | 264 | 0.0 | 0.9 | 0.00 | 0.00 | 0.00 | 72 | 1025.6 |
| 20260906051511 | 63 | 257 | 0.0 | 1.7 | 0.00 | 0.00 | 0.00 | 70 | 1025.7 |
| 20260906050009 | 64 | 257 | 0.0 | 1.7 | 0.00 | 0.00 | 0.00 | 69 | 1025.7 |
| 20260906044518 | 65 | 198 | 0.0 | 2.6 | 0.00 | 0.00 | 0.00 | 68 | 1025.9 |
| 20260906043028 | 65 | 142 | 0.0 | 1.7 | 0.00 | 0.00 | 0.00 | 68 | 1026.0 |
| 20260906041503 | 65 | 163 | 0.9 | 3.5 | 0.00 | 0.00 | 0.00 | 1026.0 | |
| 20260906040007 | 65 | 167 | 0.9 | 3.5 | 0.00 | 0.00 | 0.00 | 65 | 1026.1 |
| 20260906034517 | 66 | 140 | 0.9 | 5.2 | 0.00 | 0.00 | 0.00 | 1026.1 | |
| 20260906033018 | 67 | 190 | 0.0 | 1.7 | 0.00 | 0.00 | 0.00 | 64 | 1026.0 |
| 20260906031532 | 68 | 182 | 0.9 | 5.2 | 0.00 | 0.00 | 0.00 | 62 | 1026.1 |
| 20260906030004 | 68 | 161 | 1.7 | 5.2 | 0.00 | 0.00 | 0.00 | 60 | 1025.8 |
| 20260906024510 | 67 | 102 | 0.9 | 5.2 | 0.00 | 0.00 | 0.00 | 54 | 1025.6 |
| 20260906023017 | 66 | 90 | 2.6 | 7.8 | 0.00 | 0.00 | 0.00 | 43 | 1025.4 |
| 20260906021531 | 67 | 352 | 0.0 | 0.0 | 0.00 | 0.00 | 0.00 | 43 | 1025.0 |
| 20260906020031 | 68 | 352 | 0.0 | 1.7 | 0.00 | 0.00 | 0.00 | 42 | 1024.7 |
| 20260906014508 | 70 | 352 | 0.0 | 0.0 | 0.00 | 0.00 | 0.00 | 39 | 1024.5 |
| 20260906013014 | 72 | 352 | 0.0 | 0.0 | 0.00 | 0.00 | 0.00 | 38 | 1024.4 |
| 20260906011524 | 74 | 352 | 0.0 | 0.0 | 0.00 | 0.00 | 0.00 | 37 | 1024.6 |
| 20260906010030 | 75 | 352 | 0.0 | 1.7 | 0.00 | 0.00 | 0.00 | 35 | 1024.6 |
| 20260906004533 | 76 | 319 | 0.9 | 2.6 | 0.00 | 0.00 | 0.00 | 33 | 1024.9 |
| 20260906003012 | 75 | 265 | 0.9 | 3.5 | 0.00 | 0.00 | 0.00 | 32 | 1025.1 |
| 20260906001535 | 75 | 238 | 1.7 | 4.3 | 0.00 | 0.00 | 0.00 | 32 | 1025.1 |
| 20260906000028 | 75 | 221 | 0.9 | 3.5 | 0.00 | 0.00 | 0.00 | 36 | 1024.9 |
| 20260905234529 | 75 | 228 | 0.0 | 1.7 | 0.00 | 0.00 | 0.00 | 36 | 1024.9 |
| 20260905233015 | 75 | 244 | 0.9 | 3.5 | 0.00 | 0.00 | 0.00 | 33 | 1024.8 |
| 20260905231522 | 77 | 223 | 2.6 | 5.2 | 0.00 | 0.00 | 0.00 | 31 | 1024.7 |
| 20260905230023 | 77 | 275 | 0.0 | 5.2 | 0.00 | 0.00 | 0.00 | 32 | 1024.5 |
| 20260905224527 | 77 | 175 | 2.6 | 5.2 | 0.00 | 0.00 | 0.00 | 34 | 1024.7 |
| 20260905223046 | 77 | 184 | 0.9 | 5.2 | 0.00 | 0.00 | 0.00 | 33 | 1024.9 |
| 20260905221521 | 78 | 199 | 1.7 | 7.0 | 0.00 | 0.00 | 0.00 | 32 | 1025.2 |